Погода в Октябрьской Готне

Россия / Белгородская область     50°39′25″N   35°53′51″E
темп.,
°C
ветер,
м/с
пор.,
м/с
влажн.,
%
обл.,
%
осадки,
мм/ч
давл.,
гПа
погр.,
м
22 января, сб
сб2200:00−5юз7149498 0.3 1005562
03:00−5юз6129496 0.5 1005445
06:00−5юз61194100 0.1 1005395
09:00−6ююз5109599 0.3 1007372
12:00−4ююз5894100 0.2 1008456
15:00−4ююз4795100 0.5 1009459
18:00−7ю369881 0.1 101168
21:00−5ююз369798 0.6 1013202
23 января, вс
вс2300:00−10ююз229996 0.1 101524
03:00−13ю1210099 0.1 101610
06:00−10юв23100100 0.0 101886
09:00−8вюв22100100 0.1 1020200
12:00−6в4594100 0.1 1022344
15:00−5всв4690100 0.1 1024511
18:00−6св4891100 0.0 1026333
21:00−11ссв51295100 0.0 1028208
24 января, пн
пн2400:00−10ссв6159394 0.0 1028276
03:00−10ссв7179199 0.0 1028366
06:00−9ссв71593100 0.1 1027389
09:00−8св71493100 0.6 1028425
12:00−6св61394100 0.6 1028557
15:00−5св6119194 0.7 1027611
18:00−6св5109190 0.0 1027377
21:00−9св51195100 0.0 1027278
25 января, вт
вт2500:00−11св4897100 0.0 1027188
03:00−11св3896100 0.1 1026185
06:00−11всв369798 0.0 1024124
09:00−10в2596100 0.1 1024124
12:00−7вюв239396 0.1 1023204
15:00−5ююв249398 0.1 1022298
18:00−10юв229998 0.0 102215
21:00−5ю2597100 0.1 1021194
26 января, ср
ср2600:00−5ююз2696100 0.1 1021284
03:00−6юв1198100 0.2 102012
06:00−12юв2210096 0.1 102010
09:00−10ююв23100100 0.1 102184
12:00−6ююв239697 0.1 1021237
15:00−4юв1292100 0.1 1020270
18:00−8всв2298100 0.3 102111
21:00−10в229987 0.4 102118